DW9246 Weather Reports


time (UTC)temp
F
wind
direction
speed
knots
gust
knots
rain 1hr
in
rain 24hr
in
rain mn
in
humidity
%
barometer
mb
20260510091011 64 192 3.5 9.6 0.00 0.28 0.00 75 1013.6
20260510090012 64 213 4.3 7.8 0.00 0.28 0.00 76 1013.7
20260510085013 64 204 3.5 7.8 0.00 0.28 0.00 77 1013.6
20260510084012 62 234 2.6 7.8 0.00 0.28 0.00 77 1013.8
20260510083012 62 198 5.2 9.6 0.00 0.28 0.00 77 1013.8
20260510082013 61 215 4.3 8.7 0.00 0.28 0.00 79 1013.6
20260510080015 61 213 6.1 9.6 0.00 0.28 0.00 79 1013.7
20260510075011 61 234 4.3 9.6 0.00 0.28 0.00 79 1013.8
20260510073011 60 239 5.2 10.4 0.00 0.28 0.00 79 1013.6
20260510072014 59 240 4.3 8.7 0.00 0.28 0.00 80 1013.5
20260510071014 59 237 3.5 7.8 0.00 0.28 0.00 80 1013.4
20260510070012 59 244 2.6 6.1 0.00 0.28 0.00 80 1013.4
20260510065012 59 275 2.6 6.1 0.00 0.28 0.00 81 1013.2
20260510064013 58 267 2.6 7.8 0.00 0.28 0.00 81 1013.2
20260510063012 58 252 2.6 5.2 0.00 0.28 0.00 82 1013.4
20260510062011 58 274 1.7 6.1 0.00 0.28 0.00 82 1013.3
20260510061009 57 285 2.6 6.1 0.00 0.28 0.00 83 1013.2
20260510060013 57 279 2.6 6.1 0.00 0.28 0.00 84 1013.3
20260510055009 56 271 2.6 5.2 0.00 0.28 0.00 86 1013.3
20260510054012 56 301 2.6 3.5 0.00 0.28 0.00 87 1013.2
20260510053010 55 298 1.7 3.5 0.00 0.28 0.00 87 1013.2
20260510052011 54 298 1.7 3.5 0.00 0.28 0.00 87 1013.2
20260510051014 55 297 0.9 2.6 0.00 0.28 0.00 87 1013.1
20260510050012 55 298 1.7 3.5 0.00 0.28 0.00 87 1013.0
20260510044009 55 298 1.7 5.2 0.00 0.28 0.00 87 1013.0
20260510043011 56 298 1.7 3.5 0.00 0.28 0.00 87 1013.0
20260510042010 56 297 1.7 2.6 0.00 0.28 0.00 87 1013.0
20260510041012 56 298 1.7 3.5 0.00 0.28 0.00 87 1013.1
20260510040012 56 297 1.7 2.6 0.00 0.28 0.00 87 1013.1
20260510035011 56 297 2.6 3.5 0.00 0.28 0.00 87 1013.1
20260510034010 56 298 1.7 3.5 0.00 0.28 0.00 87 1013.1
20260510033010 56 298 2.6 5.2 0.00 0.28 0.00 88 1013.1
20260510032010 56 295 2.6 6.1 0.00 0.28 0.00 88 1013.1
20260510031010 56 313 2.6 3.5 0.00 0.28 0.00 88 1013.2
20260510030019 56 313 2.6 4.3 0.00 0.28 0.00 88 1013.2
20260510025010 56 313 1.7 3.5 0.00 0.28 0.00 88 1013.2
20260510023010 56 313 2.6 3.5 0.00 0.28 0.00 88 1013.2
20260510022011 56 313 2.6 4.3 0.00 0.28 0.00 88 1013.3
20260510021010 55 313 2.6 4.3 0.00 0.28 0.00 89 1013.4
20260510020012 55 311 2.6 6.1 0.00 0.28 0.00 88 1013.3
20260510015017 55 294 4.3 7.0 0.00 0.28 0.00 88 1013.5
20260510014009 55 298 3.5 7.0 0.00 0.28 0.00 88 1013.5
20260510011017 54 296 4.3 6.1 0.00 0.28 0.00 88 1013.6
20260510010023 53 334 2.6 5.2 0.00 0.28 0.00 88 1013.7
20260510005022 53 340 1.7 3.5 0.00 0.28 0.00 88 1013.7
20260510004021 53 339 2.6 4.3 0.00 0.28 0.00 88 1013.7
20260510003022 53 339 2.6 4.3 0.00 0.28 0.00 88 1013.6
20260510002022 53 339 3.5 5.2 0.00 0.28 0.00 89 1013.6
20260510001023 53 339 3.5 5.2 0.00 0.28 0.00 89 1013.7
20260510000032 53 339 2.6 4.3 0.00 0.28 0.00 89 1013.7
20260509235021 54 339 2.6 3.5 0.00 0.28 0.28 89 1013.8
20260509234022 54 337 2.6 5.2 0.00 0.28 0.28 89 1013.9
20260509233022 54 304 3.5 5.2 0.00 0.28 0.28 89 1013.9
20260509232021 55 323 3.5 7.0 0.00 0.28 0.28 89 1014.0
20260509231021 55 323 4.3 7.8 0.00 0.28 0.28 90 1014.1
20260509230022 55 329 5.2 7.0 0.00 0.28 0.28 90 1014.1
20260509225028 55 331 5.2 7.8 0.00 0.28 0.28 90 1014.2
20260509224022 56 329 3.5 7.0 0.00 0.28 0.28 90 1014.2
20260509222021 56 298 3.5 7.0 0.00 0.28 0.28 91 1014.8
20260509221024 56 287 3.5 7.0 0.00 0.28 0.28 91 1014.8
20260509220020 55 298 3.5 6.1 0.00 0.28 0.28 91 1014.5
20260509215021 56 300 2.6 3.5 0.00 0.28 0.28 91 1014.4
20260509214025 56 273 3.5 6.1 0.00 0.28 0.28 91 1014.4
20260509213021 56 294 2.6 5.2 0.00 0.28 0.28 91 1014.3
20260509212021 56 289 3.5 6.1 0.00 0.28 0.28 91 1014.2
20260509210025 56 288 2.6 5.2 0.00 0.28 0.28 91 1014.1
20260509205021 56 289 2.6 6.1 0.00 0.28 0.28 91 1014.0
20260509204021 57 262 2.6 6.1 0.00 0.28 0.28 91 1014.0
20260509203026 57 255 3.5 7.0 0.00 0.28 0.28 91 1014.0
20260509202021 57 249 3.5 5.2 0.00 0.28 0.28 90 1014.0
20260509201021 57 248 2.6 5.2 0.00 0.28 0.28 90 1013.7
20260509200022 57 252 2.6 4.3 0.00 0.28 0.28 89 1013.5
20260509195022 57 252 2.6 4.3 0.00 0.28 0.28 89 1013.2
20260509194021 57 262 2.6 4.3 0.00 0.28 0.28 88 1013.1
20260509193021 57 251 1.7 4.3 0.00 0.28 0.28 87 1012.8
20260509192023 57 287 1.7 3.5 0.00 0.28 0.28 86 1012.7
20260509191022 58 289 2.6 5.2 0.00 0.28 0.28 85 1012.4
20260509190023 58 244 1.7 3.5 0.00 0.28 0.28 83 1012.4
20260509185021 59 245 0.9 2.6 0.00 0.28 0.28 82 1012.3
20260509183021 60 0 0.0 0.0 0.00 0.28 0.28 83 1011.9
20260509182021 59 98 0.0 1.7 0.00 0.28 0.28 83 1011.8
20260509181024 59 97 0.9 4.3 0.00 0.28 0.28 85 1011.7
20260509180022 58 87 1.7 4.3 0.00 0.28 0.28 86 1011.5
20260509175022 58 63 1.7 6.1 0.00 0.28 0.28 86 1011.7
20260509174021 58 326 1.7 3.5 0.00 0.28 0.28 88 1011.6
20260509173019 58 327 0.0 1.7 0.00 0.28 0.28 90 1011.6
20260509172022 58 23 0.9 3.5 0.00 0.28 0.28 90 1011.5
20260509171021 57 46 2.6 7.8 0.00 0.28 0.28 90 1011.3
20260509165019 58 76 6.1 12.2 0.02 0.28 0.28 91 1011.0
20260509164020 57 76 6.1 10.4 0.02 0.28 0.28 90 1011.2
20260509163019 57 65 6.1 10.4 0.05 0.28 0.28 91 1011.8
20260509162020 56 58 6.1 11.3 0.09 0.28 0.28 91 1012.1
20260509161020 56 49 6.1 12.2 0.15 0.28 0.28 91 1012.3
20260509160021 57 56 5.2 10.4 0.19 0.27 0.27 91 1012.6
20260509155020 58 72 3.5 7.8 0.19 0.26 0.26 91 1012.6
20260509153020 57 129 3.5 7.8 0.20 0.23 0.23 88 1013.0
20260509152025 58 148 4.3 8.7 0.16 0.17 0.18 87 1013.3
20260509151020 58 155 6.1 9.6 0.11 0.13 0.13 87 1013.5
20260509150022 59 152 2.6 8.7 0.06 0.08 0.08 86 1013.5
20260509145021 59 163 5.2 8.7 0.06 0.07 0.07 85 1013.5
20260509144020 60 178 4.3 7.8 0.03 0.05 0.05 84 1013.3
20260509143019 60 189 4.3 7.0 0.01 0.02 0.02 82 1013.1
20260509141020 60 111 2.6 5.2 0.02 0.02 0.02 81 1012.0
20260509140021 60 77 2.6 7.8 0.02 0.02 0.02 81 1011.4
20260509135020 60 59 2.6 8.7 0.02 0.02 0.02 81 1011.2
20260509134020 60 61 4.3 9.6 0.02 0.02 0.02 81 1011.2
20260509133020 60 67 1.7 5.2 0.02 0.02 0.02 80 1011.3
20260509132020 61 104 1.7 3.5 0.01 0.01 0.01 78 1011.9
20260509131020 61 141 2.6 6.1 0.00 0.00 0.00 77 1012.4
20260509130022 62 125 0.9 5.2 0.00 0.00 0.00 75 1012.8
20260509125021 62 125 0.0 0.9 0.00 0.00 0.00 74 1013.0
20260509124020 62 125 0.0 1.7 0.00 0.00 0.00 74 1013.1
20260509123022 62 126 0.0 1.7 0.00 0.00 0.00 75 1013.2
20260509122020 62 117 1.7 3.5 0.00 0.00 0.00 75 1013.2
20260509120021 62 118 2.6 7.0 0.00 0.00 0.00 75 1013.0
20260509114020 62 105 5.2 10.4 0.00 0.00 0.00 76 1013.3
20260509113020 61 104 5.2 10.4 0.00 0.00 0.00 77 1013.5
20260509112019 62 127 3.5 7.8 0.00 0.00 0.00 78 1013.7
20260509111019 61 138 2.6 7.8 0.00 0.00 0.00 78 1014.0
20260509105022 61 131 6.1 9.6 0.00 0.00 0.00 78 1013.7
20260509104018 61 138 6.1 10.4 0.00 0.00 0.00 78 1013.7
20260509102020 62 156 6.1 13.9 0.00 0.00 0.00 78 1014.1
20260509101020 62 147 5.2 10.4 0.00 0.00 0.00 76 1014.2
20260509095019 62 111 2.6 6.1 0.00 0.00 0.00 75 1013.9
20260509094019 62 127 3.5 7.8 0.00 0.00 0.00 75 1014.1
20260509092020 63 120 4.3 9.6 0.00 0.00 0.00 74 1014.0